Hourly Weather Wagadugu

Today, 8 August, Saturday

Time Temperature Precipitation Wind Pressure Humidity
00:00 +26°C° 0 mm 4 mps 734 mmHg 86%
01:00 +26°C° 0.6 mm 4 mps 734 mmHg 87%
02:00 +26°C° 0.6 mm 4 mps 733 mmHg 88%
03:00 +25°C° 0.6 mm 4 mps 733 mmHg 89%
04:00 +25°C° 0.2 mm 4 mps 734 mmHg 89%
05:00 +25°C° 0.2 mm 4 mps 734 mmHg 89%
06:00 +25°C° 0.2 mm 4 mps 734 mmHg 89%
07:00 +25°C° 0.2 mm 4 mps 734 mmHg 89%
08:00 +25°C° 0.2 mm 4 mps 735 mmHg 88%
09:00 +25°C° 0.2 mm 4 mps 735 mmHg 88%
10:00 +25°C° 0 mm 4 mps 735 mmHg 86%
11:00 +26°C° 0 mm 4 mps 735 mmHg 84%
12:00 +26°C° 0 mm 4 mps 735 mmHg 82%
13:00 +27°C° 0.2 mm 5 mps 734 mmHg 79%
14:00 +28°C° 0.2 mm 5 mps 734 mmHg 76%
15:00 +29°C° 0.2 mm 5 mps 733 mmHg 73%
16:00 +28°C° 0 mm 4 mps 733 mmHg 74%
17:00 +28°C° 0 mm 4 mps 733 mmHg 76%
18:00 +28°C° 0 mm 4 mps 733 mmHg 77%
19:00 +27°C° 0 mm 3 mps 734 mmHg 80%
20:00 +26°C° 0 mm 3 mps 734 mmHg 82%
21:00 +26°C° 0 mm 3 mps 734 mmHg 84%
22:00 +25°C° 0 mm 3 mps 734 mmHg 85%
23:00 +25°C° 0 mm 3 mps 734 mmHg 86%

Tomorrow, 9 August, Sunday

Time Temperature Precipitation Wind Pressure Humidity
00:00 +25°C° 0 mm 3 mps 734 mmHg 87%
01:00 +25°C° 0 mm 3 mps 734 mmHg 87%
02:00 +24°C° 0 mm 3 mps 734 mmHg 88%
03:00 +23°C° 0 mm 4 mps 733 mmHg 88%
04:00 +23°C° 0 mm 4 mps 734 mmHg 89%
05:00 +23°C° 0 mm 4 mps 734 mmHg 89%
06:00 +23°C° 0 mm 4 mps 734 mmHg 89%
07:00 +25°C° 0 mm 5 mps 734 mmHg 84%
08:00 +26°C° 0 mm 5 mps 735 mmHg 78%
09:00 +27°C° 0 mm 6 mps 735 mmHg 73%
10:00 +29°C° 0 mm 6 mps 735 mmHg 69%
11:00 +30°C° 0 mm 6 mps 735 mmHg 65%
12:00 +32°C° 0 mm 6 mps 735 mmHg 61%
13:00 +32°C° 0.4 mm 6 mps 734 mmHg 60%
14:00 +33°C° 0.4 mm 5 mps 733 mmHg 59%
15:00 +33°C° 0.4 mm 5 mps 732 mmHg 58%
16:00 +32°C° 0.5 mm 4 mps 732 mmHg 62%
17:00 +32°C° 0.5 mm 4 mps 732 mmHg 65%
18:00 +30°C° 0.5 mm 3 mps 732 mmHg 69%
19:00 +29°C° 1.1 mm 3 mps 732 mmHg 72%
20:00 +28°C° 1.1 mm 4 mps 733 mmHg 75%
21:00 +28°C° 1.1 mm 4 mps 733 mmHg 79%
22:00 +27°C° 1.3 mm 4 mps 733 mmHg 80%
23:00 +27°C° 1.3 mm 4 mps 733 mmHg 82%

Day after tomorrow, 10 August, Monday

Time Temperature Precipitation Wind Pressure Humidity
00:00 +27°C° 1.3 mm 4 mps 733 mmHg 83%
01:00 +26°C° 0.3 mm 4 mps 732 mmHg 84%
02:00 +26°C° 0.3 mm 4 mps 732 mmHg 85%
03:00 +26°C° 0.3 mm 4 mps 731 mmHg 86%
04:00 +26°C° 0 mm 4 mps 732 mmHg 86%
05:00 +25°C° 0 mm 4 mps 732 mmHg 87%
06:00 +25°C° 0 mm 5 mps 732 mmHg 88%
07:00 +26°C° 0 mm 5 mps 732 mmHg 83%
08:00 +27°C° 0 mm 6 mps 733 mmHg 79%
09:00 +28°C° 0 mm 6 mps 733 mmHg 75%
10:00 +29°C° 0.1 mm 6 mps 733 mmHg 73%
11:00 +29°C° 0.1 mm 6 mps 732 mmHg 72%
12:00 +30°C° 0.1 mm 5 mps 732 mmHg 70%
13:00 +30°C° 1.7 mm 5 mps 731 mmHg 69%
14:00 +32°C° 1.7 mm 5 mps 731 mmHg 68%
15:00 +32°C° 1.7 mm 4 mps 730 mmHg 67%
16:00 +30°C° 3.9 mm 4 mps 730 mmHg 72%
17:00 +29°C° 3.9 mm 3 mps 730 mmHg 78%
18:00 +28°C° 3.9 mm 2 mps 730 mmHg 83%
19:00 +27°C° 0.8 mm 3 mps 731 mmHg 85%
20:00 +27°C° 0.8 mm 3 mps 731 mmHg 87%
21:00 +26°C° 0.8 mm 3 mps 731 mmHg 89%
22:00 +26°C° 0 mm 3 mps 731 mmHg 89%
23:00 +26°C° 0 mm 3 mps 731 mmHg 90%

11 August, Tuesday

Time Temperature Precipitation Wind Pressure Humidity
00:00 +26°C° 0 mm 3 mps 731 mmHg 91%
01:00 +26°C° 0.3 mm 2 mps 731 mmHg 91%
02:00 +25°C° 0.3 mm 2 mps 731 mmHg 91%
03:00 +25°C° 0.3 mm 1 mps 731 mmHg 91%
04:00 +25°C° 0.4 mm 2 mps 731 mmHg 91%
05:00 +25°C° 0.4 mm 2 mps 731 mmHg 92%
06:00 +25°C° 0.4 mm 3 mps 731 mmHg 92%
07:00 +25°C° 0.4 mm 3 mps 732 mmHg 91%
08:00 +25°C° 0.4 mm 4 mps 732 mmHg 90%
09:00 +25°C° 0.4 mm 4 mps 733 mmHg 89%
10:00 +25°C° 1 mm 4 mps 733 mmHg 89%
11:00 +25°C° 1 mm 4 mps 733 mmHg 89%
12:00 +25°C° 1 mm 5 mps 733 mmHg 90%
13:00 +25°C° 0.3 mm 5 mps 733 mmHg 88%
14:00 +25°C° 0.3 mm 5 mps 732 mmHg 86%
15:00 +25°C° 0.3 mm 5 mps 732 mmHg 84%
16:00 +25°C° 0.1 mm 5 mps 732 mmHg 85%
17:00 +25°C° 0.1 mm 5 mps 732 mmHg 86%
18:00 +25°C° 0.1 mm 4 mps 732 mmHg 87%
19:00 +23°C° 0 mm 4 mps 733 mmHg 88%
20:00 +23°C° 0 mm 4 mps 733 mmHg 89%
21:00 +23°C° 0 mm 4 mps 734 mmHg 90%
22:00 +23°C° 0 mm 4 mps 734 mmHg 91%
23:00 +24°C° 0 mm 3 mps 734 mmHg 91%

12 August, Wednesday

Time Temperature Precipitation Wind Pressure Humidity
00:00 +22°C° 0 mm 3 mps 734 mmHg 92%
01:00 +22°C° 0 mm 3 mps 733 mmHg 92%
02:00 +22°C° 0 mm 3 mps 733 mmHg 92%
03:00 +23°C° 0 mm 2 mps 733 mmHg 92%
04:00 +23°C° 0 mm 2 mps 733 mmHg 91%
05:00 +23°C° 0 mm 2 mps 733 mmHg 90%
06:00 +23°C° 0 mm 2 mps 734 mmHg 89%
07:00 +24°C° 0 mm 2 mps 734 mmHg 85%
08:00 +25°C° 0 mm 3 mps 735 mmHg 80%
09:00 +26°C° 0 mm 4 mps 735 mmHg 76%
10:00 +28°C° 0 mm 4 mps 735 mmHg 72%
11:00 +29°C° 0 mm 3 mps 735 mmHg 68%
12:00 +30°C° 0 mm 3 mps 734 mmHg 64%
13:00 +30°C° 0.2 mm 3 mps 734 mmHg 62%
14:00 +32°C° 0.2 mm 4 mps 733 mmHg 61%
15:00 +32°C° 0.2 mm 4 mps 733 mmHg 60%
16:00 +31°C° 0.4 mm 3 mps 732 mmHg 64%
17:00 +30°C° 0.4 mm 3 mps 732 mmHg 68%
18:00 +29°C° 0.4 mm 3 mps 732 mmHg 72%
19:00 +28°C° 0.3 mm 3 mps 733 mmHg 76%
20:00 +27°C° 0.3 mm 3 mps 733 mmHg 79%
21:00 +26°C° 0.3 mm 3 mps 734 mmHg 83%
22:00 +26°C° 0 mm 2 mps 734 mmHg 84%
23:00 +26°C° 0 mm 2 mps 734 mmHg 85%

13 August, Thursday

Time Temperature Precipitation Wind Pressure Humidity
00:00 +26°C° 0 mm 2 mps 734 mmHg 86%
01:00 +26°C° 0.1 mm 2 mps 734 mmHg 85%
02:00 +25°C° 0.1 mm 2 mps 733 mmHg 84%
03:00 +25°C° 0.1 mm 2 mps 733 mmHg 83%
04:00 +25°C° 0 mm 2 mps 733 mmHg 84%
05:00 +25°C° 0 mm 2 mps 733 mmHg 84%
06:00 +25°C° 0 mm 3 mps 733 mmHg 84%
07:00 +26°C° 0 mm 3 mps 734 mmHg 80%
08:00 +27°C° 0 mm 4 mps 734 mmHg 75%
09:00 +29°C° 0 mm 4 mps 735 mmHg 70%
10:00 +30°C° 0 mm 4 mps 734 mmHg 65%
11:00 +32°C° 0 mm 4 mps 734 mmHg 60%
12:00 +33°C° 0 mm 4 mps 734 mmHg 56%
13:00 +33°C° 0 mm 4 mps 733 mmHg 55%
14:00 +33°C° 0 mm 3 mps 732 mmHg 55%
15:00 +34°C° 0 mm 3 mps 732 mmHg 54%
16:00 +33°C° 0 mm 3 mps 732 mmHg 57%
17:00 +31°C° 0 mm 2 mps 731 mmHg 60%
18:00 +31°C° 0 mm 2 mps 731 mmHg 62%
19:00 +30°C° 0 mm 2 mps 732 mmHg 64%
20:00 +30°C° 0 mm 2 mps 732 mmHg 65%
21:00 +29°C° 0 mm 2 mps 733 mmHg 67%
22:00 +29°C° 0 mm 2 mps 733 mmHg 68%
23:00 +28°C° 0 mm 3 mps 732 mmHg 70%
Show more